QPF
0.02 0.02 0.02 0.03 0.03 0.02 0.01 0.01 0.01 0.01 0.01 0.00 0.01 0.00 0.00 0.00 0.00 0.00 0.01 0.03 0.04 0.04 0.03 0.03 0.01 0.02 0.02 0.02 0.02 0.01 0.02 0.02 0.01 0.01 0.01 0.01 0.01 0.01 0.01 0.01 0.02 0.02 0.03
0.01 0.01 0.01 0.02 0.03 0.03 0.02 0.01 0.01 0.00 0.00 0.00 0.00 0.01 0.01 0.01 0.01 0.01 0.01 0.02 0.04 0.05 0.04 0.03 0.02 0.02 0.02 0.02 0.02 0.02 0.02 0.02 0.01 0.01 0.01 0.01 0.01 0.01 0.01 0.01 0.01 0.01 0.02
0.02 0.01 0.01 0.01 0.02 0.03 0.03 0.02 0.01 0.01 0.01 0.00 0.01 0.01 0.01 0.01 0.01 0.01 0.01 0.01 0.01 0.01 0.02 0.03 0.02 0.02 0.02 0.02 0.03 0.02 0.03 0.03 0.02 0.01 0.01 0.01 0.01 0.01 0.01 0.01 0.01 0.02 0.02
0.03 0.02 0.01 0.01 0.01 0.02 0.02 0.03 0.02 0.02 0.01 0.01 0.01 0.01 0.01 0.01 0.01 0.01 0.01 0.01 0.00 0.01 0.01 0.01 0.02 0.02 0.02 0.02 0.02 0.03 0.04 0.05 0.04 0.02 0.01 0.01 0.01 0.01 0.01 0.02 0.01 0.02 0.02
0.04 0.03 0.02 0.01 0.01 0.02 0.03 0.04 0.04 0.02 0.02 0.01 0.01 0.01 0.01 0.01 0.01 0.01 0.01 0.01 0.01 0.00 0.01 0.01 0.01 0.01 0.01 0.01 0.01 0.02 0.03 0.05 0.05 0.04 0.03 0.02 0.02 0.01 0.01 0.01 0.01 0.02 0.02
0.06 0.04 0.03 0.01 0.01 0.01 0.02 0.03 0.04 0.04 0.03 0.02 0.01 0.01 0.01 0.01 0.01 0.01 0.01 0.01 0.01 0.01 0.00 0.01 0.00 0.00 0.00 0.00 0.01 0.02 0.02 0.04 0.05 0.03 0.02 0.02 0.02 0.02 0.02 0.01 0.01 0.01 0.02
0.07 0.06 0.05 0.03 0.01 0.01 0.01 0.02 0.03 0.03 0.03 0.03 0.03 0.02 0.01 0.01 0.01 0.01 0.01 0.01 0.01 0.01 0.01 0.01 0.01 0.00 0.00 0.00 0.00 0.01 0.02 0.04 0.04 0.04 0.03 0.02 0.02 0.03 0.02 0.03 0.03 0.02 0.02
0.05 0.04 0.06 0.06 0.04 0.02 0.02 0.02 0.03 0.04 0.04 0.04 0.04 0.03 0.03 0.03 0.02 0.02 0.01 0.01 0.01 0.01 0.01 0.01 0.01 0.01 0.01 0.01 0.01 0.01 0.02 0.03 0.04 0.03 0.02 0.03 0.04 0.03 0.03 0.03 0.03 0.02 0.03
0.04 0.03 0.03 0.04 0.05 0.04 0.03 0.03 0.03 0.04 0.05 0.04 0.04 0.04 0.03 0.03 0.03 0.03 0.02 0.02 0.01 0.01 0.01 0.01 0.01 0.01 0.01 0.01 0.01 0.01 0.02 0.02 0.02 0.02 0.02 0.02 0.04 0.04 0.04 0.04 0.05 0.03 0.03
0.05 0.04 0.03 0.03 0.03 0.03 0.04 0.04 0.03 0.03 0.05 0.05 0.05 0.04 0.03 0.02 0.02 0.03 0.03 0.03 0.02 0.01 0.01 0.01 0.01 0.01 0.01 0.01 0.01 0.01 0.01 0.02 0.02 0.02 0.02 0.02 0.03 0.05 0.05 0.05 0.06 0.05 0.05
0.08 0.06 0.04 0.03 0.03 0.03 0.03 0.03 0.04 0.04 0.04 0.05 0.06 0.05 0.04 0.02 0.01 0.01 0.02 0.02 0.03 0.03 0.02 0.01 0.01 0.01 0.01 0.01 0.01 0.01 0.02 0.02 0.03 0.03 0.03 0.03 0.03 0.04 0.07 0.06 0.07 0.07 0.05
0.06 0.07 0.06 0.05 0.04 0.03 0.03 0.03 0.03 0.04 0.04 0.04 0.05 0.06 0.06 0.04 0.03 0.01 0.01 0.01 0.02 0.02 0.02 0.01 0.01 0.01 0.01 0.00 0.01 0.01 0.02 0.02 0.03 0.03 0.03 0.03 0.03 0.03 0.05 0.06 0.06 0.06 0.05
0.05 0.06 0.06 0.06 0.04 0.04 0.04 0.03 0.03 0.04 0.04 0.04 0.04 0.04 0.05 0.05 0.04 0.03 0.02 0.02 0.01 0.01 0.02 0.01 0.01 0.01 0.01 0.00 0.00 0.01 0.01 0.02 0.02 0.03 0.03 0.03 0.02 0.03 0.03 0.04 0.04 0.04 0.04
0.07 0.07 0.06 0.07 0.07 0.05 0.04 0.04 0.04 0.04 0.04 0.04 0.04 0.04 0.04 0.05 0.05 0.04 0.03 0.03 0.02 0.01 0.01 0.01 0.01 0.00 0.00 0.00 0.00 0.01 0.01 0.01 0.02 0.02 0.03 0.03 0.03 0.02 0.02 0.03 0.03 0.03 0.03
0.04 0.07 0.07 0.06 0.07 0.06 0.05 0.04 0.05 0.05 0.05 0.04 0.03 0.03 0.03 0.04 0.05 0.05 0.04 0.03 0.03 0.02 0.02 0.01 0.01 0.01 0.00 0.00 0.00 0.00 0.00 0.00 0.01 0.02 0.02 0.02 0.02 0.02 0.02 0.02 0.02 0.02 0.02
0.04 0.05 0.06 0.07 0.07 0.06 0.05 0.04 0.04 0.04 0.04 0.05 0.05 0.04 0.03 0.02 0.03 0.03 0.04 0.04 0.04 0.03 0.03 0.02 0.01 0.01 0.00 0.00 0.01 0.01 0.01 0.01 0.00 0.01 0.01 0.02 0.02 0.02 0.02 0.02 0.02 0.01 0.02
0.05 0.05 0.06 0.07 0.07 0.07 0.07 0.05 0.05 0.04 0.04 0.04 0.04 0.04 0.04 0.03 0.02 0.02 0.02 0.03 0.03 0.03 0.02 0.02 0.01 0.01 0.01 0.01 0.01 0.01 0.01 0.02 0.01 0.01 0.01 0.01 0.03 0.03 0.03 0.02 0.02 0.01 0.01
0.05 0.05 0.05 0.07 0.08 0.07 0.07 0.06 0.05 0.04 0.03 0.04 0.04 0.03 0.03 0.03 0.02 0.02 0.02 0.02 0.02 0.02 0.02 0.02 0.01 0.01 0.01 0.01 0.01 0.01 0.01 0.02 0.02 0.02 0.01 0.01 0.02 0.03 0.04 0.03 0.03 0.02 0.01
0.04 0.04 0.05 0.05 0.06 0.06 0.06 0.06 0.05 0.04 0.03 0.03 0.03 0.04 0.04 0.03 0.02 0.02 0.02 0.02 0.02 0.02 0.02 0.02 0.02 0.02 0.01 0.01 0.01 0.01 0.01 0.01 0.01 0.02 0.02 0.01 0.01 0.02 0.02 0.03 0.03 0.03 0.01
0.03 0.03 0.03 0.04 0.05 0.05 0.05 0.06 0.06 0.05 0.04 0.03 0.03 0.03 0.04 0.03 0.03 0.02 0.02 0.02 0.03 0.03 0.03 0.03 0.03 0.04 0.03 0.02 0.01 0.01 0.01 0.01 0.01 0.01 0.01 0.01 0.01 0.01 0.02 0.02 0.02 0.02 0.02
0.02 0.02 0.03 0.03 0.04 0.04 0.04 0.05 0.06 0.07 0.06 0.04 0.04 0.03 0.03 0.04 0.03 0.02 0.02 0.02 0.02 0.03 0.04 0.04 0.04 0.04 0.04 0.04 0.04 0.02 0.02 0.01 0.01 0.01 0.01 0.01 0.01 0.01 0.01 0.02 0.02 0.02 0.02
0.02 0.02 0.02 0.03 0.03 0.04 0.04 0.04 0.05 0.06 0.07 0.06 0.06 0.04 0.04 0.05 0.04 0.03 0.02 0.02 0.02 0.02 0.02 0.02 0.03 0.03 0.03 0.04 0.04 0.04 0.03 0.03 0.02 0.02 0.02 0.02 0.01 0.01 0.01 0.01 0.01 0.02 0.02
0.03 0.03 0.03 0.03 0.03 0.04 0.04 0.04 0.04 0.04 0.05 0.06 0.06 0.05 0.05 0.05 0.05 0.04 0.03 0.02 0.02 0.02 0.01 0.01 0.02 0.02 0.02 0.03 0.03 0.04 0.03 0.03 0.03 0.03 0.03 0.03 0.02 0.01 0.01 0.00 0.01 0.01 0.01
0.03 0.04 0.04 0.03 0.03 0.04 0.05 0.05 0.04 0.04 0.05 0.06 0.06 0.06 0.05 0.05 0.05 0.04 0.03 0.03 0.02 0.01 0.01 0.01 0.01 0.01 0.02 0.02 0.03 0.03 0.03 0.03 0.03 0.03 0.02 0.02 0.02 0.01 0.01 0.00 0.00 0.00 0.00
0.02 0.03 0.04 0.04 0.04 0.04 0.05 0.05 0.05 0.05 0.05 0.05 0.06 0.06 0.05 0.05 0.05 0.04 0.03 0.03 0.02 0.02 0.01 0.01 0.02 0.02 0.02 0.02 0.02 0.03 0.04 0.04 0.03 0.02 0.02 0.02 0.02 0.01 0.01 0.00 0.00 0.00 0.00
0.02 0.02 0.03 0.04 0.04 0.04 0.05 0.05 0.05 0.04 0.04 0.04 0.04 0.04 0.05 0.04 0.04 0.03 0.03 0.03 0.02 0.01 0.01 0.01 0.01 0.01 0.01 0.01 0.01 0.01 0.02 0.02 0.02 0.02 0.02 0.02 0.02 0.02 0.01 0.01 0.00 0.00 0.00
MSLP
1016.33 1016.91 1017.53 1018.16 1018.77 1019.33 1019.81 1020.21 1020.51 1020.74 1020.92 1021.07 1021.22 1021.40 1021.62 1021.89 1022.20 1022.56 1022.93 1023.31 1023.69 1024.05 1024.40 1024.73 1025.04 1025.34 1025.62 1025.88 1026.12 1026.33 1026.50 1026.64 1026.75 1026.84 1026.91 1026.97 1027.02 1027.07 1027.12 1027.16 1027.17 1027.16 1027.11
1015.97 1016.54 1017.16 1017.79 1018.42 1019.02 1019.55 1020.02 1020.41 1020.73 1021.00 1021.24 1021.48 1021.74 1022.01 1022.32 1022.64 1022.98 1023.33 1023.67 1023.99 1024.31 1024.61 1024.91 1025.22 1025.52 1025.84 1026.15 1026.45 1026.73 1026.98 1027.18 1027.34 1027.46 1027.54 1027.58 1027.61 1027.63 1027.64 1027.65 1027.64 1027.61 1027.54
1015.56 1016.12 1016.72 1017.36 1018.00 1018.64 1019.24 1019.79 1020.28 1020.73 1021.12 1021.49 1021.84 1022.18 1022.52 1022.86 1023.18 1023.50 1023.80 1024.07 1024.33 1024.58 1024.82 1025.08 1025.37 1025.68 1026.02 1026.38 1026.74 1027.10 1027.42 1027.69 1027.90 1028.04 1028.13 1028.16 1028.16 1028.14 1028.11 1028.07 1028.03 1027.98 1027.91
1015.09 1015.64 1016.24 1016.87 1017.54 1018.21 1018.88 1019.52 1020.13 1020.71 1021.24 1021.75 1022.22 1022.66 1023.07 1023.44 1023.77 1024.06 1024.31 1024.52 1024.71 1024.88 1025.07 1025.28 1025.54 1025.85 1026.21 1026.60 1027.02 1027.43 1027.81 1028.13 1028.38 1028.55 1028.65 1028.67 1028.64 1028.58 1028.51 1028.44 1028.37 1028.30 1028.22
1014.58 1015.12 1015.72 1016.36 1017.04 1017.75 1018.48 1019.21 1019.93 1020.63 1021.30 1021.94 1022.53 1023.07 1023.56 1023.98 1024.32 1024.60 1024.82 1024.98 1025.12 1025.24 1025.38 1025.55 1025.78 1026.08 1026.43 1026.84 1027.28 1027.73 1028.14 1028.51 1028.79 1028.98 1029.09 1029.10 1029.06 1028.98 1028.87 1028.77 1028.67 1028.58 1028.49
1014.01 1014.56 1015.17 1015.82 1016.51 1017.25 1018.02 1018.82 1019.62 1020.43 1021.22 1021.98 1022.68 1023.32 1023.89 1024.36 1024.75 1025.05 1025.26 1025.42 1025.54 1025.65 1025.76 1025.91 1026.12 1026.39 1026.73 1027.13 1027.56 1028.00 1028.43 1028.81 1029.11 1029.32 1029.44 1029.47 1029.42 1029.33 1029.21 1029.09 1028.98 1028.87 1028.77
1013.39 1013.96 1014.58 1015.24 1015.95 1016.70 1017.50 1018.33 1019.20 1020.08 1020.95 1021.80 1022.59 1023.32 1023.97 1024.52 1024.97 1025.32 1025.59 1025.79 1025.94 1026.07 1026.20 1026.35 1026.55 1026.79 1027.10 1027.46 1027.86 1028.27 1028.68 1029.05 1029.35 1029.58 1029.72 1029.77 1029.75 1029.68 1029.57 1029.44 1029.33 1029.21 1029.09
1012.73 1013.32 1013.96 1014.62 1015.34 1016.09 1016.89 1017.74 1018.63 1019.54 1020.46 1021.37 1022.23 1023.03 1023.76 1024.39 1024.93 1025.38 1025.74 1026.03 1026.27 1026.47 1026.65 1026.83 1027.03 1027.26 1027.53 1027.83 1028.17 1028.52 1028.89 1029.23 1029.54 1029.78 1029.95 1030.04 1030.06 1030.02 1029.95 1029.84 1029.73 1029.61 1029.47
1012.01 1012.64 1013.29 1013.96 1014.67 1015.42 1016.21 1017.05 1017.93 1018.84 1019.77 1020.69 1021.59 1022.44 1023.24 1023.96 1024.61 1025.17 1025.67 1026.10 1026.47 1026.78 1027.06 1027.30 1027.53 1027.74 1027.97 1028.21 1028.48 1028.77 1029.07 1029.38 1029.67 1029.93 1030.13 1030.28 1030.36 1030.38 1030.35 1030.29 1030.19 1030.07 1029.92
1011.26 1011.91 1012.58 1013.26 1013.96 1014.70 1015.46 1016.27 1017.12 1018.00 1018.90 1019.82 1020.72 1021.60 1022.45 1023.26 1024.02 1024.72 1025.37 1025.97 1026.50 1026.96 1027.36 1027.69 1027.96 1028.19 1028.39 1028.58 1028.78 1029.00 1029.25 1029.51 1029.79 1030.06 1030.30 1030.50 1030.65 1030.74 1030.76 1030.74 1030.67 1030.56 1030.40
1010.49 1011.16 1011.84 1012.52 1013.22 1013.94 1014.68 1015.45 1016.25 1017.08 1017.94 1018.82 1019.71 1020.60 1021.48 1022.36 1023.22 1024.06 1024.86 1025.63 1026.34 1026.97 1027.51 1027.95 1028.30 1028.56 1028.75 1028.91 1029.06 1029.23 1029.43 1029.66 1029.93 1030.21 1030.49 1030.74 1030.94 1031.08 1031.17 1031.18 1031.14 1031.04 1030.88
1009.70 1010.38 1011.06 1011.76 1012.45 1013.15 1013.87 1014.61 1015.36 1016.15 1016.95 1017.78 1018.64 1019.52 1020.42 1021.34 1022.28 1023.24 1024.19 1025.11 1025.99 1026.78 1027.48 1028.05 1028.49 1028.81 1029.04 1029.20 1029.33 1029.47 1029.64 1029.86 1030.12 1030.41 1030.70 1030.99 1031.23 1031.42 1031.54 1031.58 1031.56 1031.47 1031.32
1008.89 1009.58 1010.27 1010.96 1011.66 1012.35 1013.06 1013.77 1014.49 1015.23 1015.98 1016.77 1017.58 1018.43 1019.33 1020.28 1021.28 1022.32 1023.39 1024.46 1025.48 1026.43 1027.27 1027.98 1028.53 1028.94 1029.23 1029.44 1029.59 1029.74 1029.91 1030.13 1030.38 1030.68 1030.99 1031.29 1031.55 1031.75 1031.88 1031.94 1031.93 1031.85 1031.72
1008.08 1008.76 1009.45 1010.14 1010.83 1011.53 1012.23 1012.92 1013.63 1014.34 1015.06 1015.80 1016.58 1017.40 1018.29 1019.24 1020.28 1021.38 1022.54 1023.71 1024.86 1025.94 1026.92 1027.76 1028.44 1028.96 1029.34 1029.63 1029.85 1030.04 1030.25 1030.48 1030.75 1031.05 1031.36 1031.65 1031.90 1032.10 1032.22 1032.27 1032.26 1032.19 1032.07
1007.24 1007.90 1008.58 1009.26 1009.95 1010.65 1011.36 1012.06 1012.76 1013.46 1014.17 1014.89 1015.64 1016.45 1017.32 1018.28 1019.33 1020.46 1021.67 1022.92 1024.16 1025.35 1026.44 1027.41 1028.22 1028.86 1029.37 1029.77 1030.08 1030.36 1030.63 1030.91 1031.21 1031.52 1031.82 1032.09 1032.32 1032.48 1032.58 1032.61 1032.58 1032.51 1032.41
1006.38 1007.00 1007.65 1008.31 1009.00 1009.70 1010.42 1011.14 1011.86 1012.57 1013.29 1014.01 1014.76 1015.56 1016.43 1017.39 1018.44 1019.60 1020.84 1022.13 1023.42 1024.69 1025.88 1026.95 1027.88 1028.66 1029.30 1029.83 1030.27 1030.66 1031.02 1031.37 1031.71 1032.04 1032.34 1032.60 1032.79 1032.91 1032.97 1032.97 1032.93 1032.86 1032.77
1005.47 1006.05 1006.65 1007.28 1007.95 1008.65 1009.38 1010.12 1010.87 1011.62 1012.38 1013.13 1013.91 1014.72 1015.61 1016.57 1017.63 1018.80 1020.05 1021.35 1022.69 1024.00 1025.25 1026.40 1027.43 1028.33 1029.10 1029.77 1030.35 1030.86 1031.34 1031.78 1032.19 1032.55 1032.87 1033.11 1033.28 1033.38 1033.41 1033.38 1033.32 1033.25 1033.18
1004.53 1005.04 1005.58 1006.17 1006.81 1007.50 1008.24 1009.01 1009.80 1010.60 1011.40 1012.21 1013.04 1013.90 1014.82 1015.81 1016.89 1018.06 1019.31 1020.62 1021.95 1023.28 1024.56 1025.76 1026.87 1027.86 1028.75 1029.54 1030.26 1030.91 1031.50 1032.05 1032.54 1032.97 1033.31 1033.58 1033.75 1033.84 1033.85 1033.82 1033.76 1033.70 1033.64
1003.58 1004.01 1004.48 1005.01 1005.61 1006.28 1007.02 1007.81 1008.64 1009.50 1010.37 1011.25 1012.15 1013.08 1014.05 1015.08 1016.19 1017.37 1018.62 1019.91 1021.23 1022.55 1023.83 1025.05 1026.19 1027.25 1028.22 1029.12 1029.96 1030.73 1031.45 1032.10 1032.69 1033.19 1033.60 1033.91 1034.11 1034.22 1034.26 1034.24 1034.20 1034.15 1034.12
1002.67 1003.02 1003.41 1003.87 1004.42 1005.06 1005.79 1006.60 1007.46 1008.38 1009.32 1010.28 1011.26 1012.27 1013.31 1014.40 1015.54 1016.73 1017.98 1019.26 1020.55 1021.83 1023.08 1024.29 1025.43 1026.52 1027.54 1028.51 1029.43 1030.31 1031.13 1031.90 1032.58 1033.18 1033.67 1034.05 1034.31 1034.47 1034.55 1034.57 1034.57 1034.56 1034.55
1001.89 1002.16 1002.47 1002.86 1003.34 1003.94 1004.65 1005.46 1006.35 1007.31 1008.32 1009.35 1010.42 1011.51 1012.62 1013.77 1014.96 1016.17 1017.41 1018.67 1019.92 1021.15 1022.36 1023.52 1024.63 1025.71 1026.74 1027.75 1028.72 1029.67 1030.58 1031.44 1032.23 1032.92 1033.50 1033.96 1034.31 1034.54 1034.69 1034.77 1034.81 1034.85 1034.88
1001.32 1001.52 1001.76 1002.08 1002.50 1003.05 1003.72 1004.52 1005.42 1006.41 1007.46 1008.56 1009.70 1010.86 1012.05 1013.26 1014.48 1015.72 1016.95 1018.18 1019.39 1020.57 1021.71 1022.81 1023.87 1024.91 1025.92 1026.93 1027.93 1028.92 1029.89 1030.82 1031.68 1032.46 1033.13 1033.68 1034.10 1034.42 1034.64 1034.79 1034.89 1034.97 1035.03
1001.06 1001.20 1001.38 1001.63 1002.00 1002.49 1003.12 1003.89 1004.78 1005.78 1006.86 1008.01 1009.19 1010.42 1011.66 1012.91 1014.17 1015.42 1016.65 1017.86 1019.02 1020.14 1021.22 1022.25 1023.25 1024.23 1025.20 1026.18 1027.17 1028.17 1029.16 1030.13 1031.05 1031.89 1032.62 1033.25 1033.75 1034.14 1034.43 1034.64 1034.79 1034.91 1035.01
1001.16 1001.27 1001.41 1001.61 1001.93 1002.37 1002.95 1003.68 1004.55 1005.54 1006.62 1007.78 1008.99 1010.24 1011.52 1012.80 1014.08 1015.34 1016.56 1017.75 1018.87 1019.94 1020.96 1021.93 1022.86 1023.78 1024.70 1025.64 1026.60 1027.57 1028.56 1029.53 1030.47 1031.33 1032.11 1032.78 1033.33 1033.77 1034.11 1034.37 1034.56 1034.70 1034.82
1001.66 1001.76 1001.88 1002.05 1002.32 1002.72 1003.26 1003.95 1004.77 1005.73 1006.79 1007.94 1009.15 1010.40 1011.69 1012.98 1014.26 1015.51 1016.73 1017.89 1018.99 1020.02 1020.99 1021.91 1022.79 1023.65 1024.52 1025.40 1026.31 1027.25 1028.20 1029.15 1030.07 1030.93 1031.70 1032.38 1032.95 1033.41 1033.77 1034.05 1034.26 1034.42 1034.54
1002.54 1002.64 1002.75 1002.91 1003.16 1003.52 1004.02 1004.67 1005.45 1006.36 1007.39 1008.50 1009.68 1010.91 1012.18 1013.45 1014.71 1015.96 1017.15 1018.30 1019.37 1020.38 1021.32 1022.20 1023.04 1023.86 1024.68 1025.52 1026.38 1027.26 1028.16 1029.05 1029.92 1030.74 1031.49 1032.14 1032.70 1033.15 1033.50 1033.78 1033.98 1034.13 1034.25
Thickness
5615 5615 5615 5616 5617 5618 5618 5619 5620 5620 5620 5620 5621 5621 5622 5622 5622 5622 5621 5621 5622 5623 5624 5625 5626 5626 5627 5627 5627 5627 5627 5627 5628 5628 5628 5629 5629 5629 5630 5630 5631 5631 5632
5607 5607 5608 5608 5609 5610 5611 5612 5613 5613 5613 5613 5613 5613 5614 5614 5614 5614 5614 5614 5614 5615 5616 5617 5618 5619 5619 5620 5620 5620 5620 5620 5621 5621 5621 5622 5622 5622 5623 5623 5624 5625 5626
5598 5599 5599 5600 5601 5601 5603 5604 5604 5605 5604 5604 5605 5605 5605 5606 5606 5606 5606 5607 5607 5607 5608 5608 5610 5610 5611 5612 5612 5613 5613 5613 5614 5614 5614 5614 5615 5615 5616 5617 5618 5618 5619
5589 5590 5590 5591 5592 5593 5595 5596 5597 5597 5597 5597 5597 5596 5596 5596 5597 5597 5598 5598 5599 5599 5599 5600 5601 5602 5603 5604 5605 5605 5606 5606 5607 5607 5607 5607 5608 5608 5609 5609 5610 5611 5612
5579 5581 5581 5582 5582 5584 5585 5587 5588 5589 5588 5588 5587 5587 5587 5587 5587 5588 5589 5589 5590 5590 5591 5591 5592 5593 5594 5595 5596 5597 5597 5598 5599 5599 5599 5600 5600 5601 5601 5602 5603 5604 5605
5568 5571 5571 5572 5573 5575 5576 5577 5578 5578 5579 5578 5578 5577 5577 5577 5577 5579 5579 5580 5580 5581 5582 5583 5584 5584 5585 5585 5586 5588 5588 5589 5590 5591 5591 5592 5593 5593 5594 5594 5595 5596 5597
5558 5560 5561 5562 5563 5565 5566 5567 5568 5568 5568 5568 5570 5568 5567 5567 5568 5568 5569 5570 5571 5571 5572 5573 5574 5575 5576 5576 5576 5578 5579 5581 5582 5583 5584 5584 5585 5585 5586 5586 5587 5588 5589
5547 5549 5550 5552 5553 5554 5555 5556 5558 5558 5556 5558 5561 5563 5563 5561 5559 5558 5559 5560 5561 5562 5563 5563 5564 5565 5566 5567 5567 5568 5569 5571 5572 5574 5575 5576 5577 5578 5578 5578 5579 5580 5581
5535 5537 5539 5540 5541 5543 5544 5545 5547 5548 5548 5547 5549 5553 5557 5559 5553 5550 5550 5550 5551 5552 5553 5553 5554 5555 5556 5557 5557 5558 5559 5561 5562 5564 5566 5567 5568 5569 5570 5571 5571 5572 5573
5523 5525 5526 5528 5529 5531 5531 5533 5535 5537 5538 5537 5537 5538 5541 5546 5547 5544 5541 5541 5541 5542 5543 5543 5544 5544 5545 5547 5547 5548 5549 5551 5552 5554 5556 5557 5559 5560 5561 5562 5563 5563 5564
5510 5512 5513 5514 5516 5518 5519 5521 5523 5525 5526 5527 5527 5528 5529 5531 5535 5539 5538 5534 5532 5532 5532 5533 5533 5534 5535 5536 5537 5537 5539 5540 5542 5543 5545 5547 5549 5550 5551 5552 5553 5553 5554
5498 5499 5501 5502 5504 5505 5506 5508 5510 5512 5513 5515 5516 5517 5518 5521 5523 5526 5528 5526 5525 5523 5522 5522 5523 5523 5523 5525 5526 5527 5528 5530 5531 5533 5534 5536 5538 5539 5540 5541 5542 5542 5543
5487 5488 5489 5490 5492 5493 5494 5495 5497 5499 5501 5502 5503 5504 5506 5507 5509 5511 5513 5513 5514 5513 5513 5513 5513 5513 5513 5514 5516 5516 5518 5519 5520 5522 5524 5525 5526 5527 5528 5529 5530 5530 5531
5477 5477 5477 5478 5479 5480 5481 5483 5484 5486 5487 5489 5490 5491 5493 5494 5495 5497 5499 5500 5502 5504 5506 5505 5504 5503 5503 5504 5505 5506 5508 5509 5509 5511 5513 5514 5515 5516 5517 5518 5518 5519 5519
5465 5465 5466 5466 5467 5467 5469 5470 5471 5473 5475 5477 5478 5479 5480 5481 5482 5484 5486 5488 5490 5494 5498 5496 5494 5493 5492 5493 5493 5494 5496 5498 5499 5500 5501 5502 5503 5504 5505 5506 5506 5507 5507
5452 5453 5453 5454 5455 5455 5456 5457 5459 5461 5462 5464 5465 5466 5467 5468 5470 5471 5473 5475 5477 5480 5483 5484 5481 5480 5480 5481 5482 5483 5485 5486 5487 5488 5489 5490 5490 5491 5492 5494 5494 5495 5495
5440 5441 5441 5442 5442 5443 5444 5445 5447 5449 5450 5452 5452 5454 5455 5456 5458 5459 5460 5461 5463 5465 5468 5469 5468 5468 5468 5469 5470 5471 5472 5474 5476 5476 5477 5478 5479 5479 5480 5481 5482 5482 5483
5427 5428 5429 5430 5430 5431 5432 5433 5435 5436 5438 5440 5441 5441 5442 5443 5445 5447 5447 5449 5450 5451 5453 5455 5455 5455 5456 5457 5458 5459 5460 5462 5463 5464 5465 5465 5466 5467 5467 5468 5469 5469 5470
5415 5416 5417 5418 5419 5419 5420 5421 5423 5424 5426 5428 5429 5430 5430 5431 5433 5434 5435 5436 5437 5437 5438 5440 5442 5442 5443 5443 5445 5446 5447 5448 5450 5451 5452 5453 5453 5454 5455 5455 5456 5456 5457
5402 5404 5405 5406 5407 5408 5409 5410 5412 5413 5415 5416 5417 5417 5419 5420 5421 5422 5422 5423 5423 5424 5425 5426 5428 5429 5430 5430 5431 5433 5435 5436 5437 5438 5439 5440 5441 5441 5442 5443 5444 5444 5444
5389 5391 5392 5393 5394 5396 5398 5399 5400 5401 5403 5404 5404 5405 5407 5407 5408 5409 5409 5410 5410 5411 5411 5412 5414 5416 5417 5417 5418 5419 5420 5422 5424 5424 5426 5428 5428 5430 5429 5430 5430 5431 5431
5376 5377 5379 5381 5382 5384 5386 5386 5387 5389 5390 5391 5392 5393 5394 5394 5395 5395 5396 5397 5397 5397 5398 5399 5401 5402 5403 5402 5403 5403 5403 5406 5411 5411 5410 5413 5412 5415 5416 5416 5417 5417 5417
5363 5365 5367 5369 5371 5372 5372 5373 5374 5376 5377 5378 5380 5381 5381 5382 5382 5382 5383 5383 5383 5383 5384 5385 5388 5389 5389 5389 5388 5388 5387 5388 5392 5392 5392 5398 5398 5401 5402 5403 5403 5403 5403
5351 5353 5354 5356 5357 5359 5360 5360 5360 5362 5364 5366 5367 5368 5369 5369 5369 5368 5369 5370 5370 5371 5371 5371 5373 5374 5373 5371 5370 5371 5371 5372 5375 5375 5375 5381 5385 5386 5388 5389 5389 5389 5389
5338 5339 5341 5342 5344 5346 5346 5346 5346 5348 5351 5352 5353 5354 5355 5356 5356 5355 5355 5357 5357 5357 5356 5356 5357 5357 5357 5357 5355 5355 5357 5359 5363 5364 5361 5364 5369 5370 5373 5375 5375 5375 5374
5325 5326 5327 5329 5330 5332 5333 5334 5334 5336 5338 5339 5340 5341 5341 5342 5341 5341 5342 5343 5344 5344 5343 5343 5343 5344 5344 5344 5342 5342 5343 5344 5346 5349 5349 5347 5350 5350 5357 5361 5360 5359 5359